Change the Weather History Date:

Wednesday, January 16, 2013

  Actual Average Record
Temperature  
Mean Temperature 32 °F 25 °F  
Max Temperature 34 °F 35 °F 51 °F (1973)
Min Temperature 29 °F 15 °F -9 °F (1957)
Degree Days  
Heating Degree Days 33 40  
Month to date heating degree days 539 632  
Since 1 July heating degree days 2589 2961  
Cooling Degree Days 0 0  
Month to date cooling degree days 0 0  
Year to date cooling degree days 0 0  
Moisture  
Dew Point 28 °F    
Average Humidity 74    
Maximum Humidity 92    
Minimum Humidity 56    
Precipitation  
Precipitation 0.36 in 0.10 in 0.61 in (1959)
Month to date precipitation 0.67 1.63  
Year to date precipitation 0.67 1.63  
Sea Level Pressure  
Sea Level Pressure 29.99 in    
Wind  
Wind Speed 3 mph (NNW)    
Max Wind Speed 9 mph    
Max Gust Speed 13 mph    
Visibility 4 miles    
Events Fog , Rain , Snow    
T = Trace of Precipitation, MM = Missing Value Source: NWS Daily Summary

Daily Weather History Graph

Daily Weather History Graph

Search for Another Location

Airport or City:

Trip Planner

Search our weather history database for the weather conditions in past years. The results will help you decide how hot, cold, wet, or windy it might be!

Date:

Astronomy

Jan. 16, 2013 Rise Set
Actual Time 7:19 AM EST 4:51 PM EST
Civil Twilight 6:48 AM EST 5:22 PM EST
Nautical Twilight 6:14 AM EST 5:56 PM EST
Astronomical Twilight 5:41 AM EST 6:29 PM EST
Moon 9:49 AM EST (1/16) 10:46 PM EST (1/16)
Length of Visible Light 10h 33m
Length of Day
9h 32m
Waxing Crescent, 28% of the Moon is Illuminated
Jan 16
Waxing Crescent
Jan 18
First Quarter
Jan 26
Full
Feb 3
Last Quarter
Feb 10
New

Hourly Weather History & Observations

Time (EST) Temp. Windchill Dew Point Humidity Pressure Visibility Wind Dir Wind Speed Gust Speed Precip Events Conditions
12:53 AM 34.0 °F - 19.9 °F 56% 30.22 in 10.0 mi Calm Calm - N/A   Overcast
1:45 AM 32.0 °F 28.7 °F 24.8 °F 75% 30.22 in 1.8 mi NE 3.5 mph - 0.00 in Snow Light Snow
1:53 AM 30.9 °F 27.5 °F 25.0 °F 79% 30.21 in 1.2 mi NE 3.5 mph - 0.00 in Snow Light Snow
2:06 AM 30.2 °F - 26.6 °F 86% 30.20 in 0.8 mi Calm Calm - 0.01 in Snow Light Snow
2:35 AM 30.2 °F - 26.6 °F 86% 30.21 in 1.0 mi Calm Calm - 0.04 in Snow Light Snow
3:24 AM 30.2 °F 26.7 °F 26.6 °F 86% 30.18 in 1.0 mi NNW 3.5 mph - 0.03 in Snow Light Snow
3:34 AM 30.2 °F 25.4 °F 26.6 °F 86% 30.16 in 0.8 mi North 4.6 mph - 0.04 in Snow Light Snow
3:50 AM 30.2 °F 25.4 °F 26.6 °F 86% 30.15 in 1.0 mi North 4.6 mph - 0.05 in Snow Light Snow
4:29 AM 30.2 °F - 26.6 °F 86% 30.13 in 0.5 mi Calm Calm - 0.05 in Fog , Snow Snow
4:53 AM 30.0 °F 25.2 °F 27.0 °F 88% 30.11 in 0.5 mi North 4.6 mph - 0.11 in Fog , Snow Snow
5:23 AM 28.4 °F - 26.6 °F 93% 30.09 in 1.0 mi Calm Calm - 0.05 in Snow Light Snow
5:39 AM 30.2 °F 26.7 °F 26.6 °F 86% 30.09 in 1.5 mi North 3.5 mph - 0.07 in Snow Light Snow
5:53 AM 30.0 °F 24.1 °F 26.1 °F 85% 30.09 in 1.5 mi North 5.8 mph - 0.07 in Snow Light Snow
6:43 AM 30.2 °F 25.4 °F 26.6 °F 86% 30.09 in 2.0 mi North 4.6 mph - 0.04 in Snow Light Snow
6:53 AM 30.0 °F - 27.0 °F 88% 30.08 in 3.0 mi Calm Calm - 0.04 in Snow Light Snow
7:12 AM 30.2 °F - 26.6 °F 86% 30.07 in 4.0 mi Calm Calm - 0.00 in   Overcast
7:53 AM 30.0 °F - 26.1 °F 85% 30.06 in 4.0 mi Calm Calm - 0.01 in   Overcast
8:10 AM 30.2 °F - 26.6 °F 86% 30.06 in 5.0 mi Calm Calm - N/A   Overcast
8:53 AM 30.0 °F 26.5 °F 26.1 °F 85% 30.02 in 6.0 mi North 3.5 mph - N/A   Overcast
9:53 AM 30.0 °F 26.5 °F 27.0 °F 88% 29.99 in 7.0 mi NNW 3.5 mph - N/A   Overcast
10:33 AM 30.2 °F - 28.4 °F 93% 29.98 in 2.0 mi Calm Calm - N/A   Overcast
10:42 AM 30.2 °F - 28.4 °F 93% 29.98 in 1.8 mi Calm Calm - N/A   Overcast
10:53 AM 30.9 °F - 28.0 °F 89% 29.99 in 2.0 mi Calm Calm - N/A   Overcast
11:16 AM 30.2 °F - 28.4 °F 93% 29.98 in 1.8 mi Calm Calm - N/A   Overcast
11:29 AM 30.2 °F - 28.4 °F 93% 29.96 in 1.0 mi Calm Calm - 0.01 in Rain Light Freezing Rain
11:53 AM 32.0 °F - 28.9 °F 88% 29.95 in 2.0 mi Calm Calm - 0.01 in Rain Light Freezing Rain
12:00 PM 32.0 °F - 28.4 °F 87% 29.93 in 1.5 mi Calm Calm - 0.00 in Rain Light Freezing Rain
12:29 PM 30.2 °F 26.7 °F 28.4 °F 93% 29.94 in 2.5 mi WNW 3.5 mph - 0.00 in Rain Light Freezing Rain
12:42 PM 32.0 °F - 28.4 °F 87% 29.91 in 3.0 mi Calm Calm - 0.00 in Rain Light Freezing Rain
12:53 PM 32.0 °F 26.4 °F 28.9 °F 88% 29.91 in 2.0 mi North 5.8 mph - 0.00 in Rain Light Freezing Rain
1:06 PM 30.2 °F 26.7 °F 28.4 °F 93% 29.85 in 1.8 mi ENE 3.5 mph - 0.00 in Rain Light Freezing Rain
1:16 PM 32.0 °F - 28.4 °F 87% 29.85 in 2.0 mi Calm Calm - 0.00 in Rain Light Freezing Rain
1:42 PM 32.0 °F - 28.4 °F 87% 29.89 in 2.0 mi Calm Calm - 0.00 in Rain Light Freezing Rain
1:53 PM 32.0 °F - 28.9 °F 88% 29.86 in 2.0 mi Calm Calm - 0.00 in Rain Light Freezing Rain
2:04 PM 32.0 °F - 28.4 °F 87% 29.88 in 1.8 mi Calm Calm - 0.00 in Rain Light Freezing Rain
2:14 PM 32.0 °F - 28.4 °F 87% 29.89 in 2.0 mi Calm Calm - 0.00 in   Overcast
2:43 PM 32.0 °F - 30.2 °F 93% 29.88 in 1.8 mi Calm Calm - 0.01 in   Overcast
2:53 PM 32.0 °F - 30.0 °F 92% 29.89 in 2.5 mi Calm Calm - 0.01 in   Overcast
3:02 PM 32.0 °F - 30.2 °F 93% 29.87 in 3.0 mi Calm Calm - N/A   Overcast
3:49 PM 32.0 °F - 28.4 °F 87% 29.87 in 9.0 mi Calm Calm - N/A   Overcast
3:53 PM 32.0 °F - 28.9 °F 88% 29.87 in 10.0 mi Calm Calm - N/A   Overcast
4:27 PM 32.0 °F 28.7 °F 28.4 °F 87% 29.86 in 10.0 mi SSE 3.5 mph - N/A   Overcast
4:53 PM 32.0 °F 28.7 °F 28.9 °F 88% 29.87 in 10.0 mi SSW 3.5 mph - N/A   Overcast
5:53 PM 32.0 °F 28.7 °F 28.9 °F 88% 29.87 in 10.0 mi SSW 3.5 mph - N/A   Overcast
6:53 PM 32.0 °F 27.5 °F 28.9 °F 88% 29.87 in 10.0 mi SSW 4.6 mph - N/A   Scattered Clouds
7:53 PM 33.1 °F 26.9 °F 28.9 °F 85% 29.88 in 10.0 mi SSW 6.9 mph - N/A   Clear
8:53 PM 33.1 °F 28.7 °F 28.9 °F 85% 29.88 in 10.0 mi SW 4.6 mph - N/A   Clear
9:08 PM 33.8 °F - 28.4 °F 81% 29.88 in 10.0 mi Calm Calm - N/A   Scattered Clouds
9:53 PM 33.1 °F - 28.9 °F 85% 29.89 in 10.0 mi Calm Calm - N/A   Partly Cloudy
10:53 PM 33.1 °F - 28.9 °F 85% 29.88 in 10.0 mi Calm Calm - N/A   Clear
11:53 PM 33.1 °F 28.7 °F 28.9 °F 85% 29.88 in 10.0 mi SW 4.6 mph - N/A   Clear